sat.trackr.live / text

‹ back to catalog

BANDWAGON-2 OBJECT J

NORAD 62385 · 2024-247J

PAYLOAD ACTIVE UNKNOWN

§ Identity

Operator
Country
TBD
Launch date
2024-12-21
Launch site
AFWTR
Launch vehicle
Mass (kg)
RCS (m²)

External: N2YO · Heavens-Above · Gunter

§ Orbital elements

Epoch: 2026-05-25T00:06:58.347072Z

Period
92.94 min
Inclination
45.0013°
Eccentricity
0.0007260
Mean motion
15.49339361 rev/d
Perigee alt
413.7 km
Apogee alt
423.6 km
Semi-major
6,796.8 km
B*
6.9696e-4
RAAN
22.8843°
Arg perigee
164.1871°
Mean anomaly
195.9249°
Rev number
7,985

§ Raw data

BANDWAGON-2 OBJECT J1 62385U 24247J   26145.00484198  .00038914  00000+0  69696-3 0  99982 62385  45.0013  22.8843 0007260 164.1871 195.9249 15.49339361 79851

JSON: /api/v1/satellites/62385 · /tle

For live sub-satellite position, see the globe view (requires WebGL).

§ Visibility from observer

Set your observer location to see the next 7 days of passes ≥ 10°. The values pass through the URL so the page stays shareable.

No JS? Fill the form by hand. The geolocation button needs JavaScript.